Location: Kawakawa
(35.3830°S, 174.0670°E)
Time: 03:13:50
(UTC+12:00)

IRIDIUM 106 - Pass Details

Date: 15 August 2020
Orbit: 776 x 779 km, 86.4° (Epoch: 19 September)

Event Time Altitude Azimuth Distance (km) Brightness Sun altitude
Rises 19:20:57 0° 176° (S) 3,295 7.5 -18.6°
Reaches altitude 10° 19:23:24 10° 170° (S) 2,360 6.7 -19.1°
Maximum altitude 19:28:32 49° 95° (E) 1,003 4.4 -20.2°
Drops below altitude 10° 19:33:35 10° 20° (NNE) 2,331 6.6 -21.2°
Sets 19:35:59 0° 14° (NNE) 3,251 7.4 -21.7°
